Location: Azul
(36.7830°S, 59.8500°W)
Time: 12:12:52
(UTC-03:00)

DX 1 - Pass Details

Date: 26 October 2021
Orbit: 619 x 629 km, 98.4° (Epoch: 29 November)

Event Time Altitude Azimuth Distance (km) Brightness Sun altitude
Rises 20:37:43 0° 359° (N) 2,908 ? -14.0°
Reaches altitude 10° 20:39:58 10° 353° (N) 2,009 ? -14.4°
Maximum altitude 20:44:10 45° 280° (W) 870 ? -15.1°
Drops below altitude 10° 20:48:25 10° 206° (SSW) 2,032 ? -15.8°
Sets 20:50:43 0° 200° (SSW) 2,946 ? -16.2°
